When you browse on this site, cookies collect data to enhance your experience and personalize the content and advertising you see.
Visit our Privacy Policy to learn more. By continuing to use the site, you agree to this use of cookies and data.
  • In Romania
  • List of Countries
  • For 7 days
  • Water Temperature
  • Weather Map
  • Weather Widgets
  • user-avatar
    Login

    Hourly Weather Pakchongo

    Today, 31 May, Sunday

    Time Temperature Precipitation Wind Pressure Humidity
    00:00 +26°C° 1.8 mm 2 mps 727 mmHg 93%
    01:00 +26°C° 0 mm 1 mps 728 mmHg 92%
    02:00 +26°C° 0 mm 1 mps 727 mmHg 92%
    03:00 +26°C° 0 mm 1 mps 727 mmHg 92%
    04:00 +26°C° 0 mm 1 mps 726 mmHg 91%
    05:00 +26°C° 0 mm 1 mps 727 mmHg 91%
    06:00 +26°C° 0 mm 1 mps 727 mmHg 90%
    07:00 +26°C° 0 mm 1 mps 728 mmHg 89%
    08:00 +28°C° 0.3 mm 1 mps 728 mmHg 84%
    09:00 +29°C° 0.3 mm 1 mps 728 mmHg 79%
    10:00 +31°C° 0.3 mm 1 mps 728 mmHg 74%
    11:00 +31°C° 2.6 mm 2 mps 727 mmHg 73%
    12:00 +32°C° 2.6 mm 2 mps 727 mmHg 73%
    13:00 +32°C° 2.6 mm 2 mps 726 mmHg 72%
    14:00 +31°C° 2.1 mm 2 mps 726 mmHg 76%
    15:00 +30°C° 2.1 mm 1 mps 725 mmHg 80%
    16:00 +29°C° 2.1 mm 1 mps 724 mmHg 83%
    17:00 +29°C° 0.1 mm 1 mps 724 mmHg 84%
    18:00 +28°C° 0.1 mm 1 mps 725 mmHg 84%
    19:00 +28°C° 0.1 mm 1 mps 725 mmHg 85%
    20:00 +28°C° 0.1 mm 1 mps 725 mmHg 85%
    21:00 +27°C° 0.1 mm 1 mps 726 mmHg 86%
    22:00 +27°C° 0.1 mm 1 mps 726 mmHg 86%
    23:00 +27°C° 0 mm 1 mps 726 mmHg 87%

    Tomorrow, 1 June, Monday

    Time Temperature Precipitation Wind Pressure Humidity
    00:00 +27°C° 0 mm 1 mps 726 mmHg 89%
    01:00 +26°C° 0 mm 1 mps 726 mmHg 90%
    02:00 +26°C° 0.4 mm 1 mps 726 mmHg 91%
    03:00 +26°C° 0.4 mm 1 mps 725 mmHg 92%
    04:00 +26°C° 0.4 mm 1 mps 725 mmHg 93%
    05:00 +26°C° 0.3 mm 1 mps 726 mmHg 92%
    06:00 +26°C° 0.3 mm 1 mps 726 mmHg 91%
    07:00 +27°C° 0.3 mm 1 mps 726 mmHg 90%
    08:00 +28°C° 0.9 mm 1 mps 727 mmHg 84%
    09:00 +30°C° 0.9 mm 2 mps 727 mmHg 78%
    10:00 +31°C° 0.9 mm 2 mps 727 mmHg 73%
    11:00 +31°C° 1.9 mm 2 mps 727 mmHg 71%
    12:00 +32°C° 1.9 mm 2 mps 726 mmHg 70%
    13:00 +32°C° 1.9 mm 2 mps 726 mmHg 69%
    14:00 +32°C° 0.3 mm 2 mps 725 mmHg 70%
    15:00 +32°C° 0.3 mm 2 mps 725 mmHg 70%
    16:00 +31°C° 0.3 mm 3 mps 724 mmHg 71%
    17:00 +30°C° 0 mm 2 mps 724 mmHg 74%
    18:00 +29°C° 0 mm 2 mps 724 mmHg 77%
    19:00 +28°C° 0 mm 1 mps 725 mmHg 80%
    20:00 +28°C° 2.1 mm 2 mps 725 mmHg 84%
    21:00 +27°C° 2.1 mm 3 mps 726 mmHg 88%
    22:00 +26°C° 2.1 mm 3 mps 727 mmHg 91%
    23:00 +26°C° 0.1 mm 3 mps 726 mmHg 91%

    Day after tomorrow, 2 June, Tuesday

    Time Temperature Precipitation Wind Pressure Humidity
    00:00 +26°C° 0.1 mm 2 mps 726 mmHg 91%
    01:00 +26°C° 0.1 mm 1 mps 725 mmHg 90%
    02:00 +26°C° 0 mm 1 mps 725 mmHg 89%
    03:00 +26°C° 0 mm 1 mps 725 mmHg 88%
    04:00 +26°C° 0 mm 1 mps 724 mmHg 87%
    05:00 +26°C° 0.3 mm 1 mps 725 mmHg 88%
    06:00 +26°C° 0.3 mm 1 mps 725 mmHg 89%
    07:00 +26°C° 0.3 mm 1 mps 726 mmHg 89%
    08:00 +27°C° 0.4 mm 1 mps 726 mmHg 88%
    09:00 +28°C° 0.4 mm 1 mps 726 mmHg 86%
    10:00 +29°C° 0.4 mm 1 mps 727 mmHg 84%
    11:00 +29°C° 2.2 mm 1 mps 726 mmHg 83%
    12:00 +29°C° 2.2 mm 2 mps 726 mmHg 81%
    13:00 +30°C° 2.2 mm 2 mps 725 mmHg 79%
    14:00 +29°C° 2.2 mm 2 mps 725 mmHg 81%
    15:00 +29°C° 2.2 mm 1 mps 724 mmHg 83%
    16:00 +29°C° 2.2 mm 1 mps 723 mmHg 86%
    17:00 +28°C° 0.3 mm 2 mps 723 mmHg 86%
    18:00 +27°C° 0.3 mm 2 mps 724 mmHg 87%
    19:00 +27°C° 0.3 mm 2 mps 724 mmHg 87%
    20:00 +26°C° 0.2 mm 2 mps 724 mmHg 89%
    21:00 +26°C° 0.2 mm 2 mps 725 mmHg 91%
    22:00 +25°C° 0.2 mm 2 mps 726 mmHg 92%
    23:00 +25°C° 0 mm 1 mps 725 mmHg 91%

    3 June, Wednesday

    Time Temperature Precipitation Wind Pressure Humidity
    00:00 +25°C° 0 mm 1 mps 725 mmHg 90%
    01:00 +25°C° 0 mm 1 mps 724 mmHg 88%
    02:00 +25°C° 0 mm 1 mps 724 mmHg 88%
    03:00 +25°C° 0 mm 1 mps 724 mmHg 88%
    04:00 +25°C° 0 mm 1 mps 724 mmHg 88%
    05:00 +25°C° 0 mm 1 mps 724 mmHg 87%
    06:00 +26°C° 0 mm 1 mps 724 mmHg 87%
    07:00 +26°C° 0 mm 1 mps 725 mmHg 86%
    08:00 +28°C° 0 mm 1 mps 725 mmHg 80%
    09:00 +29°C° 0 mm 2 mps 726 mmHg 74%
    10:00 +31°C° 0 mm 3 mps 726 mmHg 67%
    11:00 +33°C° 0 mm 3 mps 725 mmHg 66%
    12:00 +33°C° 0 mm 3 mps 725 mmHg 65%
    13:00 +34°C° 0 mm 4 mps 724 mmHg 64%
    14:00 +34°C° 0.1 mm 4 mps 724 mmHg 65%
    15:00 +33°C° 0.1 mm 3 mps 723 mmHg 65%
    16:00 +33°C° 0.1 mm 3 mps 722 mmHg 66%
    17:00 +31°C° 0.2 mm 3 mps 723 mmHg 71%
    18:00 +30°C° 0.2 mm 2 mps 723 mmHg 75%
    19:00 +28°C° 0.2 mm 1 mps 723 mmHg 80%
    20:00 +28°C° 0.1 mm 1 mps 724 mmHg 82%
    21:00 +27°C° 0.1 mm 1 mps 724 mmHg 84%
    22:00 +27°C° 0.1 mm 1 mps 724 mmHg 86%
    23:00 +26°C° 0 mm 1 mps 724 mmHg 88%

    4 June, Thursday

    Time Temperature Precipitation Wind Pressure Humidity
    00:00 +26°C° 0 mm 1 mps 724 mmHg 89%
    01:00 +26°C° 0 mm 1 mps 724 mmHg 90%
    02:00 +26°C° 0.1 mm 1 mps 723 mmHg 91%
    03:00 +26°C° 0.1 mm 1 mps 723 mmHg 91%
    04:00 +25°C° 0.1 mm 1 mps 723 mmHg 91%
    05:00 +26°C° 0.1 mm 1 mps 724 mmHg 91%
    06:00 +26°C° 0.1 mm 1 mps 724 mmHg 90%
    07:00 +27°C° 0.1 mm 1 mps 724 mmHg 89%
    08:00 +28°C° 0.1 mm 2 mps 725 mmHg 82%
    09:00 +30°C° 0.1 mm 3 mps 725 mmHg 76%
    10:00 +32°C° 0.1 mm 4 mps 725 mmHg 69%
    11:00 +33°C° 0.4 mm 4 mps 725 mmHg 68%
    12:00 +33°C° 0.4 mm 4 mps 724 mmHg 67%
    13:00 +33°C° 0.4 mm 4 mps 724 mmHg 66%
    14:00 +33°C° 0.3 mm 3 mps 723 mmHg 66%
    15:00 +33°C° 0.3 mm 3 mps 723 mmHg 66%
    16:00 +33°C° 0.3 mm 3 mps 722 mmHg 66%
    17:00 +31°C° 0 mm 2 mps 722 mmHg 69%
    18:00 +30°C° 0 mm 2 mps 722 mmHg 72%
    19:00 +29°C° 0 mm 1 mps 723 mmHg 76%
    20:00 +28°C° 0 mm 1 mps 723 mmHg 79%
    21:00 +28°C° 0 mm 2 mps 724 mmHg 82%
    22:00 +27°C° 0 mm 2 mps 724 mmHg 85%
    23:00 +27°C° 0 mm 1 mps 724 mmHg 87%

    5 June, Friday

    Time Temperature Precipitation Wind Pressure Humidity
    00:00 +27°C° 0 mm 1 mps 724 mmHg 88%
    01:00 +26°C° 0 mm 1 mps 724 mmHg 90%
    02:00 +26°C° 0.2 mm 1 mps 723 mmHg 91%
    03:00 +26°C° 0.2 mm 1 mps 723 mmHg 91%
    04:00 +26°C° 0.2 mm 2 mps 723 mmHg 92%
    05:00 +26°C° 0.3 mm 1 mps 724 mmHg 91%
    06:00 +26°C° 0.3 mm 1 mps 724 mmHg 89%
    07:00 +27°C° 0.3 mm 1 mps 724 mmHg 88%
    08:00 +28°C° 0.9 mm 2 mps 725 mmHg 83%
    09:00 +30°C° 0.9 mm 2 mps 725 mmHg 79%
    10:00 +31°C° 0.9 mm 3 mps 725 mmHg 74%
    11:00 +31°C° 2.3 mm 3 mps 725 mmHg 74%
    12:00 +31°C° 2.3 mm 3 mps 724 mmHg 73%
    13:00 +32°C° 2.3 mm 4 mps 724 mmHg 73%
    14:00 +31°C° 1.9 mm 3 mps 723 mmHg 76%
    15:00 +30°C° 1.9 mm 3 mps 723 mmHg 78%
    16:00 +30°C° 1.9 mm 2 mps 722 mmHg 81%
    17:00 +29°C° 1.1 mm 2 mps 722 mmHg 82%
    18:00 +28°C° 1.1 mm 1 mps 722 mmHg 84%
    19:00 +28°C° 1.1 mm 1 mps 723 mmHg 85%
    20:00 +27°C° 0.1 mm 1 mps 723 mmHg 87%
    21:00 +27°C° 0.1 mm 1 mps 724 mmHg 88%
    22:00 +27°C° 0.1 mm 2 mps 724 mmHg 89%
    23:00 +26°C° 0 mm 2 mps 724 mmHg 90%
    Show more